RH
34 36 39 44 52 58 67 77 79 77 75 73 71 69 67 65 62 59 53 44 33 22 13 9 7 7 8 8 9 9 9 10 10 10 11 13 13 14 14 14 15 15 15 15 15 16 17 17 17 17 18 21 24 29 32 32 34 35 34 32 29 26 24 23 23 21 19 15 12 10 8 7 5 5 4 4 5 6 6 7 7 6 6 5 5 6 8 9
25 27 29 32 37 42 57 73 78 76 74 71 68 63 58 53 47 40 30 19 11 6 5 5 5 5 5 6 6 6 6 7 7 8 9 10 12 14 15 16 16 17 17 18 17 17 18 18 18 18 18 21 23 27 30 31 32 31 31 29 25 23 22 21 21 20 18 15 11 9 7 6 5 5 5 5 6 6 7 7 7 6 6 6 6 7 8 9
26 30 33 33 33 37 52 70 75 73 68 60 51 42 34 28 21 15 10 6 5 5 5 4 5 5 5 6 6 6 6 6 6 6 7 7 9 10 12 13 14 15 16 16 17 18 19 21 21 22 23 25 28 30 32 33 32 31 31 28 25 24 23 22 23 22 20 17 13 10 7 6 6 5 5 5 6 6 7 7 7 7 7 6 7 8 9 10
36 42 44 43 42 45 56 64 63 54 42 30 22 16 12 9 7 6 5 5 5 5 6 7 8 9 9 9 10 10 9 9 9 8 9 8 9 9 10 11 12 13 14 15 16 18 20 22 22 23 26 28 30 31 34 35 34 34 33 30 28 26 25 24 25 24 22 18 14 11 8 7 6 6 6 6 6 7 7 8 8 8 7 7 7 9 10 10
40 44 45 42 41 41 42 38 31 21 13 9 7 6 5 5 5 5 5 6 7 9 10 11 12 13 13 13 13 13 12 12 13 13 14 14 14 14 14 14 14 15 16 17 19 21 23 24 25 26 28 30 33 33 36 38 37 37 37 36 34 32 29 26 27 25 21 18 14 10 7 6 6 6 6 6 6 7 8 9 9 8 8 8 8 9 10 10
22 22 21 20 18 17 15 12 9 7 6 5 5 5 5 6 7 8 10 11 13 14 15 16 16 17 17 16 15 14 13 12 13 14 13 14 14 14 15 16 17 18 19 20 21 22 24 26 28 31 33 35 37 39 40 40 40 40 41 41 40 39 36 32 31 29 26 21 16 10 7 7 7 7 6 6 7 7 8 9 9 9 8 9 9 10 10 11
9 9 8 7 7 7 6 6 5 5 5 5 6 8 9 11 13 14 16 17 18 18 19 20 20 20 20 19 17 15 13 11 10 9 9 9 9 10 11 14 16 17 19 21 23 24 28 31 35 38 43 47 49 49 50 50 49 49 50 49 48 47 45 42 39 34 28 22 15 10 7 7 7 7 7 7 7 7 8 9 10 10 9 10 10 11 12 12
7 7 7 6 6 5 5 5 6 7 9 12 14 16 18 19 20 21 21 22 22 23 23 23 23 23 22 20 18 15 12 10 8 8 9 9 9 10 12 14 16 16 19 22 23 25 28 33 37 39 44 51 53 54 56 56 54 55 55 52 50 49 47 44 39 31 24 18 12 9 8 7 7 8 8 8 9 9 9 9 10 10 11 11 11 13 13 14
6 6 6 5 6 6 8 10 13 16 19 21 23 24 24 25 25 25 25 25 25 25 25 25 25 25 24 21 18 14 12 11 11 12 13 14 14 15 15 16 17 18 21 24 26 27 29 34 37 38 40 46 48 49 52 50 48 48 47 45 40 36 33 29 24 19 16 13 11 9 9 8 8 8 8 9 9 10 10 10 10 10 11 12 13 14 14 15
6 7 8 9 11 14 17 20 23 25 27 27 27 27 27 27 27 28 27 27 27 27 27 26 26 26 24 21 17 14 13 14 14 15 16 17 16 16 17 19 21 25 28 31 35 38 42 44 46 47 47 51 53 53 53 51 49 47 45 43 36 27 21 15 12 10 9 9 9 9 10 9 9 10 10 11 12 13 14 14 14 13 13 14 15 16 16 16
10 12 15 18 21 24 27 29 30 31 31 30 30 30 30 30 30 30 29 29 29 29 29 29 28 27 24 21 17 14 14 15 15 16 17 18 19 21 23 26 29 33 36 39 44 48 53 57 59 59 54 53 54 51 51 50 48 47 45 42 34 26 18 12 9 8 8 8 9 9 10 10 11 12 13 14 14 15 16 16 17 17 17 18 18 19 19 19
17 20 23 26 29 31 33 34 34 33 32 32 32 32 32 33 32 32 32 31 31 31 31 30 29 27 23 20 16 14 14 15 16 18 21 23 25 29 31 34 36 39 42 46 50 53 56 60 63 63 59 56 55 53 53 52 52 51 49 45 38 30 24 18 12 10 10 10 11 11 12 12 13 14 15 15 16 16 16 16 17 17 18 19 20 21 22 22
27 30 33 35 36 36 36 36 35 33 33 33 34 34 34 35 34 34 34 34 33 33 32 30 28 25 22 18 16 15 16 17 20 23 26 29 32 35 37 41 42 44 48 53 57 58 57 58 58 59 60 60 62 63 63 62 62 60 55 51 42 31 24 21 18 16 15 14 14 14 15 16 16 17 18 18 19 19 19 19 19 20 21 22 23 23 24 24
38 39 39 38 37 35 34 33 33 33 34 34 35 36 36 36 36 35 36 36 35 34 32 30 27 24 20 17 16 16 18 21 24 27 29 31 34 37 39 43 45 47 52 57 59 58 55 52 49 48 48 48 50 53 55 56 57 53 47 42 34 23 17 16 16 16 17 16 17 17 17 18 19 19 20 20 20 20 21 21 22 22 23 24 24 24 24 23
41 39 37 35 33 32 32 31 32 33 34 36 36 36 36 37 36 35 36 36 36 34 31 28 25 21 18 17 17 18 20 23 25 28 30 31 34 36 37 39 41 42 48 54 55 52 49 46 42 40 38 36 36 36 38 39 40 39 37 35 31 25 19 17 16 16 16 16 16 17 17 18 19 19 20 20 20 20 21 21 21 22 22 22 22 21 21 20
38 36 35 33 32 31 31 31 31 33 34 36 37 38 37 36 35 35 35 36 35 32 30 27 22 19 17 18 19 20 21 23 26 28 30 30 31 31 30 30 32 34 38 43 44 43 42 40 39 38 37 36 35 33 32 31 31 29 29 30 29 26 23 21 20 20 20 20 20 20 19 19 20 21 21 21 21 21 21 21 21 21 21 20 20 19 19 19
37 37 35 34 34 33 33 32 32 33 34 36 37 39 38 37 36 35 36 34 33 30 27 24 20 17 18 20 20 21 23 25 27 29 29 29 27 26 24 22 22 24 26 29 31 33 33 33 32 32 32 32 32 31 30 30 30 28 27 26 24 23 22 20 20 19 19 19 20 21 22 23 23 23 23 23 22 22 22 22 22 21 21 20 20 19 19 19
39 38 36 36 36 36 36 35 35 35 35 37 38 39 39 38 37 36 36 34 31 27 23 21 19 18 18 19 21 23 26 28 30 31 30 28 26 25 23 21 20 19 19 20 21 23 23 23 23 23 24 24 24 25 24 25 26 26 26 25 23 21 19 17 16 16 16 16 16 18 19 20 21 22 23 23 23 23 23 23 22 21 21 20 20 20 21 21
42 41 40 39 40 40 40 39 39 38 37 38 39 40 41 40 38 38 36 32 28 23 20 19 17 18 17 18 23 26 28 31 30 29 28 27 26 26 26 26 24 22 19 19 19 20 20 19 19 19 19 19 19 19 20 21 21 22 22 22 22 20 18 17 16 16 16 15 15 15 15 17 18 19 20 21 21 22 22 21 21 21 21 22 22 22 23 23
46 46 45 44 43 43 43 42 42 41 39 39 40 41 42 42 41 38 34 30 25 19 17 17 16 18 18 19 24 27 29 28 25 22 20 19 20 22 25 25 24 24 22 22 21 20 18 16 15 13 13 13 14 14 15 16 17 18 19 19 19 19 19 18 17 16 16 16 16 16 16 16 17 17 17 18 19 19 20 20 20 21 22 23 24 24 25 24
50 49 49 48 47 46 45 45 44 43 42 41 41 42 43 43 41 37 32 26 21 17 16 17 18 20 22 23 25 26 27 25 22 20 18 16 15 16 18 18 19 19 20 19 18 16 14 12 10 9 9 10 10 11 12 13 14 15 16 17 18 19 19 19 18 18 18 18 17 17 18 19 19 19 19 19 19 20 20 21 22 22 22 23 23 22 21 21
52 51 51 50 49 49 47 46 46 44 43 42 42 43 44 43 40 35 29 22 18 17 18 20 23 26 30 33 34 33 31 28 26 24 21 18 16 15 15 14 14 14 14 14 13 12 11 10 9 9 9 10 11 12 12 13 13 14 15 16 17 18 19 19 19 19 20 20 20 20 21 22 21 21 21 21 22 22 22 22 21 21 20 20 20 20 21 22
52 51 50 50 49 49 47 46 46 45 45 44 44 45 44 41 37 31 24 20 18 20 22 26 29 33 36 38 37 35 33 30 27 24 22 20 17 16 14 12 11 10 10 10 10 10 10 9 9 9 10 11 12 13 13 13 14 15 15 16 17 18 19 19 19 20 21 21 21 22 23 23 22 21 21 21 20 20 20 19 19 19 20 21 22 24 26 27
52 51 51 49 48 48 46 45 45 46 48 48 48 47 43 37 30 23 20 19 21 24 27 29 31 34 36 36 33 30 27 25 24 22 20 18 17 16 14 13 12 10 10 10 9 9 9 9 9 10 11 12 13 13 14 14 14 15 15 16 17 17 18 18 18 19 19 19 19 20 20 19 18 18 17 17 17 17 18 19 21 22 23 25 26 28 29 31
52 51 51 49 48 47 45 45 47 49 51 51 49 43 36 29 21 17 18 21 26 29 30 30 32 33 33 32 30 28 27 27 26 25 24 23 22 21 19 17 15 13 12 11 11 10 10 11 11 11 12 12 13 13 13 13 13 14 14 14 14 14 15 15 15 15 15 15 15 16 16 16 16 16 17 18 19 20 21 22 23 25 26 28 30 31 32 33
52 51 50 48 47 46 46 49 52 52 52 48 42 34 26 21 17 16 21 28 33 33 32 33 34 33 32 32 32 32 31 30 30 30 29 27 25 22 19 17 15 13 12 11 11 11 12 11 11 12 12 12 12 11 11 11 11 11 11 12 12 12 12 13 13 14 14 15 16 17 19 19 19 20 21 22 22 22 23 24 26 28 30 32 33 34 35 37
52 50 49 48 46 47 49 52 52 49 44 36 29 23 18 16 15 16 24 34 37 33 33 36 34 32 31 31 32 32 30 29 28 26 24 21 18 17 15 13 12 11 11 11 11 11 11 11 11 11 11 11 11 11 11 12 12 12 13 14 14 15 16 16 17 19 19 21 21 20 23 25 24 23 23 23 23 24 25 28 30 32 34 36 38 40 42 44
51 49 48 48 47 50 51 49 46 39 32 25 20 16 14 14 16 20 30 39 37 32 32 31 28 26 26 26 26 25 23 21 19 17 15 14 13 12 11 11 11 11 11 11 11 12 12 12 13 13 13 13 14 14 15 15 16 17 18 18 19 20 21 22 23 23 24 24 24 24 27 29 27 25 25 25 26 28 30 33 36 39 41 44 46 48 50 51
49 49 49 50 51 52 49 44 37 29 23 19 16 14 14 17 21 29 37 39 33 28 26 23 20 19 19 19 18 16 14 13 12 12 11 11 11 11 12 12 12 12 12 12 12 13 13 13 14 15 16 16 16 18 18 20 20 21 22 23 24 25 25 26 27 27 29 28 27 29 33 35 33 30 29 30 31 34 37 39 42 44 46 47 47 48 48 49
49 50 51 52 53 49 42 35 28 22 18 17 16 16 19 23 29 36 38 33 26 21 17 15 13 13 12 12 11 10 11 11 11 11 11 12 12 12 12 12 12 12 13 13 13 14 16 17 19 19 20 21 21 22 23 23 24 25 26 27 28 29 29 31 31 32 34 32 32 36 39 40 40 34 32 35 37 38 40 39 40 40 39 40 42 46 51 57
51 52 53 54 49 41 31 24 20 18 17 18 20 23 27 32 34 34 29 23 17 13 11 10 9 9 10 10 11 11 11 12 12 12 12 12 12 12 13 14 15 16 18 19 20 21 21 21 21 21 21 23 25 27 28 29 30 31 31 32 33 33 34 33 33 35 37 36 36 39 41 44 42 36 33 35 34 33 33 32 34 38 43 50 59 69 77 85
55 55 52 46 36 27 21 19 19 19 21 24 29 33 33 32 27 22 17 12 10 9 9 9 9 10 11 11 12 12 12 12 12 12 12 13 15 16 18 19 20 21 22 22 20 19 18 17 17 16 16 18 20 23 26 28 31 32 33 35 34 35 35 33 32 34 35 36 36 37 40 39 34 29 27 27 27 31 36 41 50 60 70 79 87 93 97 100
54 48 38 29 23 19 18 19 21 24 28 33 35 33 27 20 14 11 9 9 9 9 10 10 10 11 11 11 11 11 11 12 13 15 17 18 20 22 22 23 22 20 17 15 13 13 15 16 15 15 15 15 16 17 20 22 25 27 29 31 32 34 33 29 28 29 29 29 28 28 29 27 26 29 34 38 44 50 58 66 75 83 91 97 100 101 101 101
40 30 22 19 18 18 20 23 26 30 34 34 30 23 16 11 9 8 9 10 10 10 10 10 10 10 10 10 11 12 13 16 19 21 23 24 25 25 24 20 16 13 12 12 12 13 15 15 15 15 15 15 15 15 16 18 19 21 23 24 25 27 27 24 23 23 24 26 26 30 34 37 43 50 57 64 70 74 80 87 93 97 100 101 100 100 99 99
23 18 18 19 19 21 24 26 29 31 31 27 21 15 10 9 9 9 10 10 10 10 9 9 10 10 12 13 15 18 19 22 24 25 26 26 25 22 17 14 12 12 13 15 15 14 14 14 14 14 14 14 15 16 17 19 21 21 22 24 25 28 30 30 31 32 36 38 40 46 53 56 63 69 77 87 91 94 98 99 100 100 99 99 100 101 101 101
17 17 19 20 23 26 27 27 27 26 23 19 14 11 9 9 9 9 9 9 9 10 9 11 13 15 18 19 21 24 25 26 27 27 25 22 18 14 12 12 13 15 16 15 14 12 12 14 16 17 18 19 21 24 26 28 30 31 32 34 36 38 40 43 44 47 52 55 55 62 71 79 87 92 95 100 100 99 100 100 100 101 101 101 99 95 89 82
17 19 22 25 26 26 25 23 21 18 15 12 10 9 9 9 9 9 9 9 10 10 12 16 18 19 23 25 27 28 28 28 25 22 18 13 11 11 12 14 14 14 14 14 14 14 14 18 22 24 24 26 28 30 32 34 36 40 44 46 48 52 57 63 68 72 77 81 81 84 91 98 101 101 101 101 101 101 101 99 97 93 87 79 70 61 54 48
21 25 26 25 23 21 19 16 14 11 10 9 9 9 9 9 9 10 10 11 12 14 16 20 22 23 25 27 28 27 25 22 17 13 10 10 11 12 13 13 13 14 15 16 17 18 19 20 25 28 28 31 36 39 44 52 57 62 69 73 78 84 88 92 94 95 96 97 95 92 94 100 104 103 101 97 93 88 81 74 66 59 52 47 44 44 45 48
27 26 23 19 16 15 12 10 9 9 9 9 9 9 9 10 10 11 13 15 17 19 22 24 26 26 25 24 22 19 15 12 10 9 10 11 12 13 14 14 15 17 18 20 21 23 25 25 33 43 46 50 59 66 72 81 86 90 95 98 100 102 102 101 101 101 100 100 100 96 92 95 94 86 77 68 61 55 49 45 44 44 46 50 55 61 64 67
23 18 14 12 10 9 8 8 8 8 9 9 9 10 11 12 13 16 18 20 22 24 25 25 23 20 17 14 12 10 9 9 10 12 13 14 15 16 17 18 20 22 24 27 32 37 42 45 53 66 72 75 82 85 87 91 95 99 101 103 103 102 102 101 101 102 101 98 96 87 77 70 63 55 50 47 45 46 47 51 57 62 67 72 74 74 71 68
12 10 8 7 7 7 7 8 8 8 9 10 11 12 14 16 19 21 22 22 22 21 19 16 13 11 10 10 10 11 12 13 14 15 16 18 20 23 26 29 33 38 43 49 55 60 64 68 71 77 80 82 86 88 89 91 93 96 97 97 95 94 92 89 85 83 79 71 64 58 53 50 49 49 52 55 59 64 69 74 76 76 76 73 69 64 60 57
6 6 6 6 6 7 8 9 10 11 13 14 15 16 18 18 19 18 17 15 14 12 11 10 10 11 12 12 13 14 15 17 19 22 26 31 37 44 48 52 56 61 65 69 73 74 75 76 78 80 81 83 85 87 89 90 89 87 85 82 79 75 70 65 59 55 52 49 48 50 53 57 62 68 72 76 79 81 80 77 71 66 63 59 58 56 56 56
5 6 7 8 9 11 12 13 14 14 15 15 14 13 13 12 11 10 10 9 10 10 11 12 12 13 14 15 17 21 26 31 36 42 48 54 60 64 66 68 69 72 73 75 77 77 76 76 77 80 83 84 84 83 82 80 77 74 69 64 60 56 53 50 49 51 53 57 63 69 75 79 82 84 83 81 78 73 68 62 59 58 57 57 59 59 59 60
9 10 11 11 12 12 12 12 11 11 10 9 8 7 7 7 7 8 9 9 11 12 14 16 17 20 23 27 33 40 46 52 56 61 64 66 68 69 69 71 72 73 74 75 76 76 77 77 76 76 77 77 76 76 74 70 67 65 61 58 57 57 59 61 65 71 76 80 84 88 88 85 81 77 73 68 63 60 59 58 59 60 60 61 63 63 64 63
10 10 10 9 8 8 7 7 6 6 5 5 5 6 6 8 9 11 12 15 17 20 24 28 31 35 39 45 51 57 61 64 65 66 67 66 67 68 69 70 72 72 74 76 76 77 78 79 79 77 76 76 76 77 76 73 70 70 71 72 75 78 81 85 88 90 89 87 85 80 75 70 66 63 61 59 59 60 62 63 64 64 65 66 66 64 63 61
8 7 6 6 5 5 5 5 5 6 6 7 9 11 13 15 18 20 23 26 30 33 37 41 44 47 52 57 61 63 64 64 64 65 66 66 67 69 70 72 73 75 76 78 80 81 81 81 81 81 80 81 80 80 80 79 80 82 83 84 86 88 88 87 85 82 78 74 69 63 60 59 59 59 60 61 63 65 66 67 67 68 67 65 63 61 59 56
10 11 11 11 11 11 12 12 13 14 15 17 18 20 23 25 27 29 31 34 36 39 43 45 48 52 55 57 59 60 62 63 64 66 68 70 71 73 75 77 79 81 83 84 84 84 83 82 80 78 78 76 76 78 80 81 82 83 82 81 80 79 75 73 71 68 64 62 60 59 60 61 61 64 66 67 68 68 68 68 66 65 63 60 58 55 50 43
16 17 17 18 19 19 19 20 21 21 22 22 23 25 26 27 29 30 31 33 35 37 40 42 44 47 50 52 56 60 64 67 70 72 74 76 78 80 82 83 82 81 77 73 69 65 61 58 53 48 46 46 50 55 58 61 65 67 67 69 68 64 61 61 62 61 60 61 62 63 64 66 67 69 69 68 68 66 66 64 62 61 59 56 50 43 37 32
16 16 17 18 18 19 20 20 20 21 21 21 22 23 24 24 25 26 27 29 31 33 35 37 41 45 50 55 59 62 66 68 71 74 73 74 74 71 68 62 54 47 40 34 30 26 23 21 19 17 17 19 24 29 32 38 45 48 52 56 55 51 51 55 57 57 59 64 67 68 68 69 70 69 68 67 65 65 64 63 62 58 53 46 39 34 33 32
14 14 14 15 15 15 16 16 16 17 17 18 19 19 20 21 21 21 21 22 22 23 24 26 30 35 39 45 47 49 51 51 51 50 45 42 40 34 29 24 17 13 11 10 10 10 10 12 14 15 17 20 23 25 29 33 37 40 45 48 46 46 50 54 54 55 59 65 68 67 66 66 66 65 65 65 65 65 65 63 58 51 44 39 37 36 37 37
13 13 13 14 14 14 14 14 14 14 15 15 15 15 14 13 12 10 10 9 8 8 9 9 12 14 16 20 22 24 26 23 20 18 14 12 11 9 8 8 7 8 9 9 11 12 13 16 18 20 23 27 30 32 35 37 40 44 47 47 48 51 54 55 57 59 62 63 63 62 62 63 63 63 64 66 67 66 63 59 52 46 43 42 41 42 42 43
12 12 13 13 13 12 13 12 11 10 10 9 8 7 6 5 3 3 3 3 2 3 3 2 3 4 5 6 7 8 8 7 6 6 6 6 7 7 8 8 9 10 10 11 13 14 15 18 20 21 26 31 33 36 40 43 45 47 49 50 53 55 56 58 61 63 65 64 63 63 64 64 64 65 67 68 67 64 60 55 51 48 47 47 47 48 47 46
Wind_Speed
16 17 18 18 18 17 16 16 16 15 15 14 15 15 15 15 16 16 16 16 15 15 14 14 15 15 15 16 16 16 17 18 18 19 19 20 21 22 23 24 24 25 26 26 27 28 29 31 32 32 33 33 33 33 34 34 34 34 34 33 31 30 31 33 34 34 34 33 32 32 32 33 33 34 35 35 34 34 34 34 35 38 39 39 38 37 36 37
14 15 15 16 17 17 16 16 16 15 15 15 16 16 16 16 16 16 16 15 13 13 12 12 13 13 14 14 15 15 16 17 18 18 19 19 20 20 21 22 23 24 25 25 26 27 28 29 30 31 31 31 32 32 32 33 33 33 33 32 29 30 31 32 33 33 33 32 32 31 32 33 34 35 35 36 35 35 35 36 38 40 40 38 37 37 38 39
13 13 14 14 14 15 15 16 16 16 16 16 16 16 15 14 14 14 14 13 13 13 12 12 12 12 13 13 14 15 17 18 19 20 20 21 21 21 22 23 24 25 26 26 27 27 28 28 29 30 30 31 31 31 32 32 32 32 32 30 29 31 31 32 33 33 33 33 33 33 33 34 35 35 36 36 36 37 37 37 39 40 40 39 38 38 39 40
12 12 11 12 12 13 14 15 15 15 15 14 14 13 13 12 12 12 12 12 12 12 12 12 12 12 13 14 15 16 18 19 20 21 22 22 23 24 24 25 26 26 27 28 28 28 28 29 29 30 30 30 31 32 32 32 33 33 31 30 30 31 32 33 34 34 34 34 34 34 34 35 35 36 37 37 37 38 38 37 38 40 41 40 39 39 40 41
9 9 10 10 11 12 13 13 13 13 12 12 11 11 11 10 10 10 10 10 10 11 12 12 13 14 15 16 17 18 19 19 20 21 22 23 24 24 25 26 26 27 28 28 29 29 29 29 30 30 30 30 31 31 32 32 33 33 31 31 32 32 33 34 35 35 35 35 35 35 35 36 36 37 38 38 38 38 37 37 39 40 41 42 41 41 42 42
6 7 8 9 9 10 11 11 10 10 10 9 9 8 8 8 8 8 8 9 10 11 13 14 15 16 18 19 20 21 21 21 21 23 23 24 24 24 25 25 26 26 27 28 28 28 29 29 29 29 30 30 30 31 31 32 33 32 31 32 33 34 34 35 35 36 36 37 37 37 37 37 37 38 38 39 39 39 38 38 39 40 41 42 42 42 43 43
6 7 7 8 8 8 8 8 7 7 6 6 5 5 6 6 7 8 9 10 12 13 14 15 17 18 19 20 21 22 22 22 22 23 24 24 24 24 25 25 25 26 26 26 27 28 28 28 28 29 29 29 29 30 30 31 32 31 31 32 34 34 35 35 36 36 37 37 38 38 39 38 39 39 39 40 40 40 40 39 40 40 42 43 43 43 44 43
5 5 5 5 5 5 4 4 3 3 3 3 3 4 6 7 9 10 11 12 14 15 16 17 18 19 20 21 22 22 22 22 22 22 23 23 23 23 24 24 24 25 25 25 26 27 27 27 28 28 29 29 29 30 30 31 31 31 31 32 33 34 35 35 36 37 37 37 38 39 39 40 40 40 40 40 40 40 41 41 41 41 42 43 43 44 44 44
2 2 2 2 2 1 1 1 1 2 3 4 5 6 8 9 11 12 13 14 15 17 18 19 19 20 21 21 22 22 21 20 21 21 22 22 22 23 23 23 23 23 23 24 24 25 25 26 26 27 28 28 29 29 30 31 31 31 32 33 33 34 35 36 36 37 37 37 38 39 40 40 40 40 40 40 41 41 41 42 42 42 43 43 43 44 44 44
1 1 1 2 2 2 2 2 2 4 5 6 8 9 10 11 12 14 15 15 16 18 19 20 20 21 22 22 23 22 21 20 21 21 21 21 22 23 22 22 22 22 23 23 23 23 24 25 25 26 27 27 28 29 30 31 31 32 32 33 34 35 35 36 36 36 37 37 38 39 39 40 40 40 41 41 41 42 42 42 42 43 43 43 43 43 44 44
3 3 3 3 3 3 3 4 5 6 8 9 10 11 12 13 14 15 16 17 18 19 20 21 22 23 23 24 24 23 22 21 21 21 21 22 22 22 22 22 22 23 23 23 24 24 24 24 25 26 27 27 28 29 30 31 31 32 33 33 34 35 35 35 35 36 37 37 38 38 39 39 40 40 41 41 42 42 43 43 43 43 43 43 43 43 44 44
3 3 3 3 3 4 5 6 8 9 10 12 13 14 15 16 16 17 18 19 20 20 21 22 22 24 25 25 24 23 22 22 22 21 21 22 22 21 22 22 23 23 23 24 24 24 24 25 26 27 28 28 29 30 30 31 32 32 33 33 34 34 35 34 35 36 36 38 38 38 39 39 39 40 40 40 41 42 43 42 42 43 43 43 44 44 45 45
3 3 3 4 5 6 8 9 10 12 13 14 15 16 17 18 19 20 20 21 22 22 22 23 24 25 25 25 24 23 22 22 22 22 21 21 21 21 21 22 23 23 23 24 24 24 25 25 26 27 27 28 29 30 31 31 32 33 33 33 33 34 35 35 36 37 37 38 39 39 40 39 39 40 40 40 41 42 42 43 43 43 43 44 45 45 46 46
4 4 5 6 8 9 10 11 12 14 15 16 17 18 19 20 21 22 22 22 22 23 24 24 26 26 26 26 25 24 22 22 22 22 21 21 21 21 21 21 22 23 23 23 24 24 24 25 26 26 27 27 28 29 30 31 32 33 33 33 33 34 35 35 36 37 38 39 39 39 40 40 40 40 41 41 41 42 42 43 43 44 44 45 46 46 47 48
6 7 8 9 10 11 12 13 14 15 16 17 18 20 21 21 22 23 22 22 22 23 24 26 26 27 26 26 25 24 23 22 22 21 21 21 21 21 21 21 21 22 22 23 23 24 24 25 25 26 27 27 28 29 30 31 32 32 33 33 33 35 36 36 37 37 38 39 40 40 41 41 41 41 41 41 41 42 43 43 44 44 45 46 47 48 49 50
8 9 11 11 12 13 14 15 15 16 17 18 19 21 22 22 23 23 22 22 23 24 25 26 27 27 26 25 24 24 23 22 21 21 21 21 21 21 21 21 21 21 21 22 23 24 24 25 26 26 27 28 29 31 32 32 33 33 33 34 34 35 37 38 38 39 39 40 40 41 42 42 42 42 42 43 43 43 44 45 45 46 47 48 49 50 51 51
10 11 12 13 14 15 16 16 17 17 18 19 20 21 22 23 23 23 23 23 24 25 26 26 27 27 26 25 25 24 23 22 21 21 20 21 21 22 22 22 22 23 22 23 23 24 25 26 27 28 28 29 31 32 33 33 33 34 34 35 36 37 38 39 40 40 40 41 42 42 43 44 44 44 44 45 45 45 46 47 48 49 49 50 51 52 52 53
12 13 14 14 15 16 17 17 18 19 19 20 21 22 23 23 23 23 24 25 26 26 26 26 26 26 26 25 24 23 23 22 21 20 21 21 22 22 22 23 23 24 24 24 25 26 27 27 28 29 30 31 32 33 34 34 34 35 36 36 37 38 39 41 41 41 42 42 43 43 44 45 45 46 46 46 47 47 48 49 50 51 51 52 52 53 53 53
13 14 15 16 16 17 18 19 20 20 21 22 22 23 24 24 24 25 26 27 27 27 26 26 26 25 25 24 23 23 22 21 21 21 22 22 23 23 24 24 24 25 25 26 27 27 28 29 30 31 32 33 34 34 35 35 36 37 37 38 39 40 41 42 42 42 43 43 44 44 45 46 46 46 47 48 48 48 49 50 50 51 51 52 52 52 53 53
14 15 16 17 18 19 19 20 21 22 23 23 24 24 25 25 26 26 27 28 28 27 26 25 25 24 23 23 22 22 22 22 22 22 23 23 23 24 24 25 25 26 26 27 27 28 29 30 31 32 33 33 34 34 35 35 36 37 38 38 39 40 41 42 42 43 43 43 44 44 44 45 45 46 46 47 47 48 48 49 49 50 50 51 51 52 52 53
15 16 18 19 20 21 21 22 23 23 24 25 25 26 26 26 27 27 28 28 28 27 25 24 23 22 21 21 21 21 22 22 23 23 24 24 23 24 24 25 26 27 27 28 29 29 30 31 31 32 32 33 33 34 34 35 35 36 37 37 38 38 40 41 41 42 42 42 43 43 44 44 45 45 45 46 46 47 47 48 48 49 50 50 50 51 51 51
16 18 19 20 21 22 23 23 24 25 25 25 26 26 27 27 28 28 28 27 27 26 24 22 22 21 20 20 21 21 22 23 24 24 24 24 24 24 25 26 27 28 29 29 30 31 31 32 32 33 33 33 33 34 34 35 35 35 36 36 37 37 39 39 40 40 41 42 43 43 43 44 45 45 45 46 46 46 47 47 48 48 48 49 49 49 50 50
18 19 21 22 23 24 24 24 25 26 26 26 26 26 27 28 28 28 28 26 25 24 23 21 21 20 20 20 21 21 21 22 23 23 23 24 25 26 26 27 28 28 29 30 31 31 32 33 33 33 33 33 34 34 34 35 35 36 36 36 37 38 39 40 40 40 41 42 42 43 44 45 45 45 45 45 45 45 46 46 46 47 47 48 49 50 51 52
20 22 23 24 24 25 25 25 26 26 26 26 26 26 27 28 28 28 26 24 23 22 22 21 21 20 20 20 20 20 20 20 21 23 24 24 25 26 27 27 28 29 29 30 30 31 32 32 33 33 33 34 34 34 35 35 35 36 36 37 37 38 39 40 41 41 42 43 42 43 44 46 45 44 44 44 44 44 45 45 46 47 49 50 51 52 53 53
22 24 25 26 26 27 27 26 26 26 26 26 26 27 27 27 27 26 24 22 21 21 21 21 20 19 19 19 19 19 20 21 22 23 24 25 26 27 27 28 28 29 29 30 30 31 31 32 33 33 33 34 34 35 35 35 35 36 36 37 38 39 40 40 41 42 42 42 42 42 44 46 45 44 43 43 44 45 46 47 49 50 51 52 52 53 52 52
24 25 27 28 28 27 26 26 25 25 26 26 26 26 26 25 24 23 22 20 19 20 20 19 19 19 19 19 20 21 22 23 24 24 25 26 27 27 28 28 28 29 29 30 30 31 32 32 33 33 34 34 35 35 35 36 36 36 36 37 38 39 39 40 40 41 42 42 42 42 44 46 46 46 46 46 47 48 49 50 51 52 53 52 52 52 51 51
26 27 29 29 28 27 26 25 25 25 26 26 26 25 24 23 22 21 20 18 17 18 18 18 18 19 20 21 22 23 23 24 25 25 26 26 27 27 28 29 29 30 30 31 31 32 32 33 34 34 35 35 36 36 36 37 37 37 37 37 38 38 39 40 40 41 42 42 43 44 45 48 49 49 49 50 50 51 52 52 52 52 52 51 51 51 50 50
28 29 29 28 27 26 25 25 26 26 26 25 24 23 22 21 20 19 18 18 17 17 17 18 19 20 21 21 22 23 23 24 25 25 26 27 28 29 29 30 31 31 32 33 33 33 34 35 35 36 36 36 37 37 37 37 38 38 38 38 38 39 39 40 41 42 43 44 45 46 47 49 52 53 53 53 54 53 53 52 51 50 50 49 49 49 49 49
29 30 29 27 25 25 26 26 26 26 25 24 22 21 20 19 18 17 17 18 17 17 18 19 20 21 21 22 22 23 24 25 26 27 27 28 29 30 31 32 32 33 34 35 35 36 36 36 37 37 38 38 39 39 39 39 39 39 39 39 40 40 41 41 42 44 45 47 47 46 48 50 53 54 54 54 54 53 51 50 49 48 47 47 47 46 46 46
30 29 27 25 25 25 26 26 26 24 23 21 20 18 17 17 17 16 16 17 17 18 19 20 20 21 22 22 23 24 25 27 28 29 29 30 31 32 32 33 34 35 36 36 37 38 39 39 40 40 41 41 41 41 41 41 41 41 41 41 42 42 43 44 45 46 47 49 48 47 48 49 51 54 53 52 51 50 49 48 47 46 45 45 45 45 45 45
28 26 25 25 26 25 25 24 23 21 20 19 17 16 16 16 16 17 17 18 18 19 20 21 21 22 23 24 25 26 27 28 29 30 31 32 33 33 34 35 36 36 37 39 40 41 42 43 43 43 43 43 43 43 43 43 43 43 43 43 43 44 45 46 46 46 47 48 47 46 46 47 49 51 51 49 48 47 46 45 45 45 44 45 45 45 46 47
26 26 26 25 25 24 22 20 19 18 17 16 16 15 16 17 18 19 19 19 20 20 20 21 22 23 24 25 26 28 29 30 30 31 32 33 34 35 36 37 38 39 40 41 41 41 40 40 39 39 39 39 40 40 41 42 42 42 42 42 43 43 44 45 45 44 44 44 44 44 44 45 47 48 46 45 45 44 44 44 44 45 45 46 47 48 49 50
26 26 25 24 22 21 19 18 17 16 16 16 16 17 18 19 19 20 20 20 21 21 22 23 24 25 26 27 28 29 30 30 31 33 34 35 36 37 39 40 42 43 43 41 39 37 34 33 33 34 34 34 35 35 36 37 38 38 38 39 39 39 41 42 41 41 41 42 42 42 42 44 44 44 43 44 44 45 45 46 46 47 48 49 49 49 50 50
26 24 23 21 20 18 17 17 16 16 16 17 18 19 20 20 20 20 20 21 22 23 24 25 26 27 28 28 29 30 31 32 33 35 36 38 39 41 42 43 43 42 39 37 35 33 33 32 33 33 33 33 33 33 33 34 34 35 35 35 36 36 38 40 40 40 40 40 41 41 42 43 43 42 43 44 45 46 47 47 48 48 48 48 48 49 49 50
23 20 19 18 17 17 16 16 16 17 18 19 20 21 21 21 21 21 21 22 24 25 26 26 27 28 28 30 31 32 33 34 36 37 39 40 42 43 42 41 39 37 35 34 33 33 33 32 32 33 32 32 32 32 32 32 33 33 34 34 35 35 37 38 39 40 40 41 42 42 43 43 44 44 45 45 45 46 46 46 46 46 47 47 48 49 50 51
19 17 17 16 16 16 16 17 17 18 19 20 21 21 21 22 22 23 23 24 25 26 26 27 28 29 30 31 33 34 35 37 38 40 41 42 42 40 38 37 35 34 33 33 34 34 32 31 31 32 32 32 32 31 32 32 33 34 34 34 35 36 37 38 40 41 41 43 44 44 44 44 44 44 44 44 44 44 44 44 45 46 47 48 49 50 50 51
16 16 15 15 16 17 17 18 19 20 21 22 22 22 23 23 24 24 25 26 26 27 27 28 29 30 31 33 34 36 38 39 41 42 41 40 38 36 34 34 33 33 33 33 33 33 32 30 29 31 32 32 32 33 33 34 34 35 35 36 37 38 38 40 41 42 43 44 44 44 43 43 43 42 42 42 42 42 43 44 45 46 47 48 49 50 50 51
15 15 16 17 17 18 19 20 21 21 22 22 23 23 24 24 24 25 26 27 28 29 30 31 32 33 34 35 37 38 40 40 40 39 37 36 34 33 33 33 32 32 32 33 33 33 33 32 30 31 33 34 34 35 35 35 36 36 37 37 38 38 39 39 40 41 42 43 43 43 42 41 41 41 41 41 41 42 43 44 45 46 46 47 48 50 51 52
16 17 18 18 19 20 21 22 22 23 23 23 24 24 24 25 25 26 27 28 29 30 31 32 34 35 37 38 38 39 39 38 36 35 34 33 33 32 32 32 32 33 33 33 34 34 35 35 33 33 35 35 35 35 35 35 36 36 36 37 37 37 38 38 38 38 39 40 41 42 41 40 40 40 40 40 41 42 43 44 45 46 47 48 50 51 52 54
19 20 20 21 22 22 22 23 23 24 24 24 24 25 25 26 27 28 29 30 31 32 33 34 35 36 37 37 37 36 35 34 34 33 33 33 32 32 32 33 33 34 34 35 35 36 36 36 34 33 35 35 35 35 35 35 35 35 35 35 35 36 36 36 36 36 36 37 38 39 39 39 39 39 40 41 42 43 44 45 47 48 49 50 51 52 54 55
21 22 22 23 23 23 23 24 24 24 25 25 26 27 28 28 29 30 31 32 33 33 34 35 35 35 34 34 34 33 33 33 33 33 33 33 33 33 34 34 34 35 35 35 36 36 35 35 35 34 34 34 34 34 34 34 34 34 34 34 34 34 34 35 34 34 35 35 36 37 38 38 39 40 41 42 43 44 46 47 48 49 50 51 52 54 55 56
23 23 23 23 24 24 24 25 25 26 27 27 28 29 29 30 30 31 32 32 32 32 32 32 32 32 32 32 32 32 32 32 33 33 33 33 34 34 35 35 35 35 35 35 35 35 35 34 34 34 34 34 34 33 33 33 32 32 32 33 33 33 34 34 34 34 34 35 36 37 39 39 40 41 42 43 44 45 46 47 48 49 50 52 53 55 56 58
24 24 24 25 25 26 26 27 27 28 28 28 29 29 29 29 30 30 30 29 29 29 30 30 31 31 31 32 32 32 32 33 33 33 34 34 34 34 34 34 34 34 34 34 34 34 34 34 33 33 32 32 32 32 31 32 32 32 31 32 32 32 33 33 34 35 35 36 37 38 40 40 41 42 42 43 44 45 46 48 49 51 52 54 55 57 59 61
25 26 27 27 27 27 28 28 28 28 28 27 27 27 27 27 27 27 27 27 28 28 29 30 30 31 31 32 32 33 33 33 34 34 34 34 34 34 34 34 34 33 33 33 33 33 33 33 33 33 32 31 31 30 30 30 31 31 31 31 32 32 33 34 35 36 37 37 38 40 41 41 42 42 43 44 45 47 48 50 52 54 55 56 58 59 61 62
27 27 27 27 26 26 26 26 25 25 25 25 25 25 25 25 25 26 26 27 28 28 29 30 30 31 32 32 33 33 33 34 34 34 34 34 34 33 33 33 32 32 32 32 32 32 32 32 32 33 34 34 34 34 33 32 32 32 32 33 34 35 35 36 36 37 37 38 39 40 41 42 43 44 45 46 47 49 51 53 54 56 57 58 59 60 61 62
26 25 25 24 24 23 23 23 23 23 23 23 23 23 24 24 25 25 26 27 27 28 29 30 31 32 32 32 33 33 33 33 33 33 33 33 32 32 32 31 31 31 31 31 31 31 32 32 32 33 34 34 35 35 35 35 35 35 35 36 36 36 36 36 36 37 38 38 39 40 41 43 44 46 47 49 50 52 53 55 56 57 57 58 60 61 62 64
23 22 22 22 22 21 21 21 21 21 21 22 22 23 23 24 24 25 26 27 28 29 30 30 31 32 32 32 31 31 31 31 31 31 31 31 31 31 31 30 30 31 31 31 31 32 32 33 33 34 34 34 35 35 36 36 36 36 37 37 36 36 37 38 38 39 40 40 41 42 44 46 47 49 51 52 53 54 55 56 57 58 59 60 61 63 64 65
21 21 21 21 21 21 21 21 21 21 21 22 22 22 23 23 24 25 26 27 29 30 31 31 32 32 31 31 31 30 29 29 29 29 29 29 30 30 30 30 30 31 31 32 33 33 33 34 34 34 35 35 35 36 36 36 36 37 37 37 37 38 39 40 40 41 42 44 45 46 48 49 51 51 52 53 54 55 56 57 58 59 60 62 63 64 65 67
21 21 21 21 21 21 21 21 21 21 21 21 22 22 23 24 25 27 28 29 30 31 32 32 32 32 32 31 31 30 29 29 29 29 29 29 29 29 30 30 30 31 32 32 33 33 33 34 34 35 35 36 36 36 37 37 37 38 38 38 39 40 41 41 42 43 45 46 47 48 49 50 51 51 53 54 55 56 57 59 60 60 61 62 64 65 67 68
21 21 21 21 21 21 21 21 21 21 21 22 23 24 25 26 27 29 30 31 31 32 32 32 32 32 32 31 31 30 30 30 30 29 29 29 29 29 29 29 30 31 32 32 33 33 34 35 36 36 37 37 37 38 38 38 38 39 39 40 41 42 42 43 44 45 46 47 48 49 49 50 51 52 54 55 56 57 58 59 60 61 62 64 66 67 69 70
21 21 21 21 21 21 21 21 22 22 23 24 25 25 26 27 29 30 30 30 30 30 31 31 31 30 30 30 30 29 29 28 28 28 28 28 28 29 29 30 31 32 32 33 34 35 35 36 38 38 39 39 40 40 39 39 39 39 40 41 42 42 43 44 45 46 46 47 47 48 49 50 52 53 54 56 57 58 59 60 61 62 64 66 67 69 70 71
23 22 22 22 22 23 22 23 23 24 25 25 26 27 28 29 29 30 30 31 31 31 31 30 30 29 29 28 27 27 27 27 28 28 29 29 30 31 31 31 32 33 34 34 35 36 37 39 40 41 41 42 43 43 43 42 41 41 42 42 42 42 43 43 44 45 46 47 48 49 50 52 53 54 55 56 57 58 60 61 62 64 65 67 69 70 71 71
Wind_Direction
250 250 250 250 251 253 255 256 259 262 264 268 271 274 276 277 277 277 276 275 275 276 277 277 277 276 276 275 274 274 272 271 271 271 271 270 269 267 267 267 266 266 266 266 265 264 263 262 262 262 262 262 262 262 263 265 266 267 268 269 269 269 267 265 266 267 269 269 269 269 269 267 265 263 262 261 260 259 259 258 258 257 257 258 261 263 264 264
252 250 249 249 249 250 251 253 257 261 265 270 274 277 279 280 280 280 279 279 278 278 278 278 278 278 278 278 277 276 274 274 274 273 273 272 270 268 267 266 266 266 266 266 266 265 264 264 264 264 264 263 263 263 264 266 267 268 269 271 271 269 268 268 270 271 272 273 273 271 270 269 267 266 264 263 262 261 260 259 259 260 261 262 264 265 265 265
255 254 253 251 249 248 249 253 259 265 269 274 276 278 279 280 279 279 281 283 285 286 285 284 282 281 280 280 279 277 276 275 274 274 273 271 270 268 267 266 266 266 266 266 266 266 266 266 267 267 267 266 266 266 266 267 268 269 271 272 272 271 272 273 273 274 275 275 275 274 272 271 269 267 266 265 264 263 262 262 264 265 266 266 266 266 266 267
257 256 256 253 251 251 253 258 265 270 273 275 277 279 280 280 279 279 282 286 289 291 292 293 291 290 288 285 282 280 278 276 274 273 272 270 268 267 266 266 266 266 267 267 267 268 268 268 269 269 269 269 269 268 268 268 268 269 271 273 273 273 275 275 275 276 277 277 276 275 273 271 270 268 267 266 265 265 265 266 266 268 269 269 268 267 267 268
255 255 256 255 256 257 260 265 269 272 273 275 277 279 280 281 283 285 288 291 293 295 298 299 299 299 297 294 292 288 285 281 278 276 273 271 269 268 267 266 266 267 267 267 268 268 268 268 269 269 269 269 269 269 269 268 268 270 272 273 273 274 274 275 276 277 277 277 276 275 274 271 270 268 267 267 267 267 268 268 268 268 270 270 270 270 270 270
259 260 262 263 264 264 265 267 268 271 272 276 278 281 285 288 292 294 297 298 298 300 302 302 302 301 300 299 297 295 292 288 284 282 279 277 275 273 272 271 271 270 270 271 271 271 271 270 270 269 269 269 269 269 269 269 270 271 273 274 273 273 274 275 275 276 276 277 276 275 274 272 270 268 268 268 268 268 268 268 269 270 270 271 272 272 272 272
272 271 271 271 272 270 270 270 270 272 274 279 285 291 296 298 300 301 302 300 299 300 299 299 300 299 299 298 297 296 294 290 287 284 281 279 278 278 277 277 277 277 277 277 277 277 277 276 275 275 274 273 272 272 271 272 272 272 273 274 274 274 274 274 275 275 275 275 275 274 272 271 270 270 270 269 269 269 269 269 270 271 271 271 272 272 272 272
280 277 276 275 275 276 277 280 283 287 295 303 307 307 305 303 301 300 299 297 296 296 295 295 295 296 297 296 296 296 293 291 288 284 281 280 280 280 279 279 279 279 279 279 279 279 279 278 278 278 278 277 277 276 276 276 275 275 275 275 275 275 276 275 275 274 274 274 273 272 271 270 270 271 271 271 271 271 270 270 270 271 271 271 272 272 272 272
291 288 287 285 288 306 338 3 356 335 325 319 314 308 304 301 298 296 295 293 292 292 292 292 293 295 296 296 297 296 293 291 287 283 282 283 282 280 278 277 277 277 276 276 276 276 277 277 277 277 277 277 277 278 277 277 277 277 277 277 278 278 278 277 276 276 275 274 273 271 271 271 271 272 272 273 273 273 273 273 273 273 272 272 272 272 272 273
19 31 42 50 51 45 33 10 345 329 321 315 310 306 302 300 297 296 294 293 292 291 291 292 294 296 297 299 300 298 297 293 287 285 285 284 282 281 279 277 277 278 277 277 276 275 275 276 276 276 275 275 276 276 276 276 277 277 277 277 278 279 279 279 279 278 276 274 273 272 272 273 273 274 275 275 276 276 276 276 276 275 275 274 274 273 273 274
58 54 50 43 30 13 355 339 326 318 313 309 307 305 304 302 300 299 297 296 295 294 294 294 296 298 300 301 302 301 299 294 290 289 287 285 283 282 282 282 281 281 281 280 279 278 277 276 276 276 276 276 275 275 275 276 276 276 276 276 278 279 280 280 279 278 276 275 273 273 274 274 274 275 276 277 278 278 278 278 277 276 276 275 275 275 275 275
58 49 34 15 357 341 328 318 313 309 307 307 307 307 307 307 305 304 302 300 299 298 298 298 299 300 301 302 302 302 299 295 292 290 288 287 285 283 283 284 283 282 282 281 280 280 279 278 277 277 277 278 278 278 278 278 278 277 277 277 278 280 280 280 278 276 276 275 275 275 275 275 275 276 276 277 277 277 277 277 277 277 276 276 276 277 277 277
36 20 359 340 325 316 311 308 307 307 308 309 309 310 309 309 308 306 305 303 303 302 302 302 302 302 303 303 303 302 299 296 294 292 290 289 287 285 284 284 284 283 282 282 281 282 282 282 282 281 281 280 280 281 280 279 279 278 278 279 280 281 279 278 276 275 274 274 275 275 275 275 275 275 276 276 276 276 276 277 277 277 277 277 277 278 278 278
355 340 327 317 311 308 307 307 308 309 309 310 310 310 310 310 308 307 306 304 304 304 304 304 304 304 304 304 303 302 300 297 296 295 293 291 289 288 287 285 285 284 283 283 283 283 284 284 284 284 285 284 283 282 281 280 279 279 280 281 281 279 278 277 276 275 275 274 275 275 275 275 275 275 275 275 275 275 276 276 276 277 277 278 278 278 278 278
332 323 316 311 309 308 308 308 308 309 309 310 310 309 309 309 307 306 305 304 304 305 305 305 304 305 304 303 302 301 300 298 297 296 294 294 292 291 291 289 286 285 284 284 284 283 284 284 285 286 286 285 285 284 282 280 279 280 281 281 280 279 279 278 277 276 276 275 276 276 276 276 276 276 276 276 276 276 276 276 276 277 277 278 278 278 279 279
326 321 317 315 313 311 309 308 307 307 307 308 308 309 309 308 307 306 305 304 305 305 305 304 304 303 302 301 301 300 298 298 296 295 295 294 294 293 292 291 289 288 287 286 285 285 285 285 285 285 285 286 285 283 281 281 281 282 282 281 281 279 279 279 278 277 277 276 276 276 277 277 277 276 276 277 277 277 277 277 277 277 277 278 278 279 280 281
324 321 318 316 315 313 311 308 307 306 306 306 306 307 308 308 307 306 305 305 305 306 306 304 303 302 300 300 300 298 297 296 294 293 292 292 291 291 291 291 291 291 290 289 287 286 286 286 286 286 286 285 283 281 282 283 284 283 282 282 281 279 279 278 278 278 278 277 277 276 276 277 277 277 277 277 277 278 278 279 279 279 279 279 280 280 281 282
322 319 317 316 315 313 311 309 307 306 305 304 304 305 307 307 307 306 306 306 307 307 306 304 302 300 299 299 297 296 296 295 293 291 290 289 288 288 289 289 289 289 289 289 288 287 287 287 287 287 286 284 282 283 285 285 284 282 282 281 280 279 279 278 278 278 278 277 277 277 276 276 276 276 277 277 278 278 279 280 280 281 281 281 282 282 282 283
320 318 316 315 314 312 311 309 308 307 305 304 304 304 305 306 306 305 306 307 308 307 305 303 301 299 298 298 297 296 296 294 293 292 290 289 288 288 289 289 288 287 287 287 287 287 287 287 287 286 285 284 285 285 285 284 283 283 282 281 280 280 279 278 279 279 278 278 277 277 277 277 277 277 277 277 278 279 279 280 280 281 281 282 282 282 283 283
319 318 316 314 313 311 310 309 309 307 306 305 304 303 303 305 305 306 306 307 308 308 306 303 301 299 297 297 295 294 293 292 293 293 292 291 290 289 289 289 289 288 287 287 287 287 287 288 287 287 286 287 287 286 285 285 284 284 283 282 282 281 280 279 279 279 279 279 279 279 279 278 278 278 279 279 280 279 279 280 280 281 281 281 282 282 282 281
318 316 315 313 312 311 310 310 309 307 307 306 305 303 303 304 305 306 307 308 309 309 308 305 303 300 298 295 293 291 290 291 291 291 292 292 292 292 292 291 291 290 290 289 289 289 289 289 289 289 289 289 288 287 287 287 286 285 284 284 283 282 281 281 280 280 280 280 280 280 280 279 279 279 280 280 280 280 280 281 281 281 281 281 281 281 281 281
316 315 314 313 312 312 311 311 309 308 308 307 305 305 304 305 305 306 307 308 310 310 309 308 306 304 301 297 295 293 291 291 291 292 293 293 294 295 295 294 293 292 292 291 290 290 290 290 290 291 291 290 290 290 289 288 287 286 285 285 284 283 282 282 282 281 281 281 281 281 281 280 280 280 280 280 281 281 282 282 282 282 282 282 282 282 282 283
316 316 315 314 313 312 311 310 309 308 308 307 306 306 306 306 307 307 308 310 312 311 310 309 308 306 303 300 298 296 294 293 294 295 295 295 296 296 296 296 296 295 294 293 292 292 291 291 292 292 292 291 291 290 289 289 288 288 287 286 285 284 284 283 283 283 282 282 282 283 282 281 281 281 282 282 282 282 282 282 282 282 283 283 284 284 285 285
318 318 317 315 314 313 311 309 308 308 308 307 307 307 307 307 308 309 310 313 314 312 310 309 308 306 303 301 300 299 298 298 298 298 298 299 299 299 299 299 298 298 297 296 295 294 293 292 293 293 292 292 291 290 289 289 288 288 287 286 286 285 285 285 285 284 284 284 284 285 284 283 283 283 283 284 283 283 283 283 284 284 285 285 286 286 286 286
319 319 317 316 315 314 312 310 310 309 309 309 309 309 309 309 309 310 312 315 315 311 310 309 307 307 305 303 303 301 301 302 302 302 302 302 302 301 301 300 300 300 299 298 297 296 295 295 294 294 293 292 291 291 290 289 288 288 287 287 286 285 285 286 286 286 285 286 286 286 285 285 285 285 285 284 284 284 284 285 286 286 287 287 287 287 286 286
320 319 318 317 316 314 313 312 311 310 310 311 310 310 310 309 310 311 312 315 314 311 310 308 308 308 306 305 305 304 304 304 304 304 304 303 303 302 302 302 301 301 300 299 298 297 297 296 295 294 293 293 292 291 290 289 289 288 287 287 286 286 286 286 287 287 287 287 286 285 286 286 286 285 285 285 285 286 286 287 287 288 288 288 287 287 286 286
319 319 318 317 315 313 313 313 312 311 311 311 310 310 310 310 311 312 313 314 314 312 309 308 308 307 307 307 306 305 306 305 304 305 304 304 304 303 303 303 302 302 301 300 299 298 297 296 296 295 294 293 292 291 291 290 289 288 288 287 287 287 286 286 286 286 286 286 286 286 287 287 287 286 286 286 287 287 288 288 288 288 288 287 287 287 286 285
318 317 317 315 313 313 313 314 314 313 312 312 312 312 312 312 314 315 315 315 316 315 312 311 310 309 309 309 307 307 307 306 306 307 306 306 305 304 304 303 303 302 301 300 299 298 297 297 296 295 294 293 293 292 291 291 290 289 288 288 287 287 287 287 286 286 286 285 286 287 288 287 286 286 287 288 288 288 288 289 288 288 288 287 287 286 285 285
317 316 315 314 313 314 315 315 315 314 314 314 314 315 315 316 317 317 316 315 316 317 314 313 313 312 311 310 309 309 309 308 308 307 307 306 305 305 304 303 302 301 300 299 299 298 298 297 296 296 295 293 293 292 291 290 290 289 288 288 287 287 286 286 286 286 286 285 286 287 287 286 286 286 287 288 288 289 289 289 289 289 288 287 287 286 286 286
315 315 314 314 314 315 316 315 316 316 316 317 317 318 319 319 319 318 317 315 316 317 315 313 313 312 311 311 310 310 310 310 309 308 307 306 305 304 303 303 302 302 301 301 300 300 299 298 297 295 294 293 292 291 290 289 289 288 288 287 287 286 286 286 286 286 285 286 287 287 286 286 286 286 287 288 289 290 290 290 290 289 289 289 289 288 288 287
315 314 314 315 315 316 316 317 317 317 318 319 320 322 323 322 321 319 318 317 317 316 315 314 313 313 313 313 313 311 311 310 309 308 307 307 306 305 305 304 303 303 303 302 301 301 299 298 297 295 294 292 291 290 289 288 288 288 287 287 287 287 286 286 286 286 286 286 287 286 286 286 286 287 288 289 290 290 290 290 291 291 291 291 291 290 289 288
314 314 314 315 316 317 318 319 318 319 320 321 323 325 324 322 320 318 317 317 316 316 315 315 314 314 313 313 312 311 310 309 309 308 307 307 306 305 304 303 302 302 301 301 300 300 299 298 297 297 296 294 293 292 290 289 289 289 289 289 289 289 288 287 287 287 287 288 287 287 287 287 287 289 291 291 291 291 291 292 292 293 292 292 291 290 289 289
314 315 316 317 319 320 321 322 322 323 323 323 324 324 322 320 318 317 317 317 317 317 316 315 314 313 313 312 311 310 310 310 309 308 307 307 306 305 304 304 304 303 303 302 301 301 301 301 301 300 299 298 297 295 294 294 293 293 293 293 293 293 291 291 290 290 290 290 290 290 290 290 291 293 294 293 293 293 294 294 294 293 292 292 291 290 289 288
315 316 318 320 322 324 325 326 326 326 325 323 322 322 320 319 319 318 318 318 317 317 317 316 315 314 314 313 312 311 310 309 309 308 308 307 307 307 307 306 306 306 306 305 305 304 304 305 304 303 302 301 300 299 298 298 297 297 297 297 296 296 295 294 294 293 293 293 293 293 293 293 294 295 295 295 295 295 295 294 294 293 292 292 290 289 288 287
317 320 322 324 326 327 328 329 328 326 323 322 321 320 319 319 318 317 317 317 317 317 317 316 316 316 315 313 312 311 310 309 309 308 308 308 308 308 308 308 308 308 307 307 306 305 306 308 307 306 305 304 303 304 303 303 302 301 301 300 299 298 297 296 296 296 296 295 295 295 295 296 296 296 296 296 296 296 295 295 294 292 291 290 289 288 288 288
321 324 327 329 330 330 329 329 327 324 322 320 320 319 318 318 317 317 317 317 317 317 317 317 316 316 314 313 312 311 310 310 309 309 308 308 309 309 310 310 309 309 309 308 308 308 308 311 311 309 308 308 308 308 307 306 305 304 302 301 300 299 298 298 297 297 296 295 295 296 296 297 297 296 297 297 296 296 295 294 292 291 291 290 290 290 291 291
326 329 332 333 331 330 329 327 324 322 320 319 319 318 318 317 317 317 317 317 317 317 317 316 315 314 313 312 311 311 310 310 309 309 310 310 311 312 312 311 311 311 311 311 311 310 310 313 314 312 310 309 309 308 307 307 305 304 303 301 300 300 299 299 298 298 297 297 297 297 297 297 297 297 297 297 297 296 294 293 293 293 293 293 293 293 293 294
332 333 334 333 330 328 326 324 322 321 320 319 319 318 317 317 318 318 318 318 317 317 316 316 315 314 313 312 311 310 310 311 311 311 312 313 314 314 314 314 313 313 314 313 313 313 311 313 315 313 310 310 310 309 308 307 306 305 304 303 302 301 300 300 300 299 299 298 298 297 298 299 299 300 299 298 297 296 295 295 295 295 295 295 296 295 295 295
335 333 332 330 328 326 323 322 321 320 320 319 319 318 318 318 318 318 318 317 317 317 316 316 315 314 313 312 312 312 313 313 314 315 316 316 317 317 317 316 316 316 316 315 315 315 314 315 316 315 312 312 312 311 310 309 308 307 305 304 304 303 302 302 301 301 300 300 300 299 299 301 302 302 301 300 299 298 298 298 297 297 297 297 297 296 296 295
333 331 329 328 326 324 322 322 321 321 321 320 320 320 319 319 319 318 318 318 317 317 316 315 314 314 314 314 315 316 316 317 317 318 319 319 319 319 319 319 319 319 318 318 318 318 317 317 318 316 314 314 313 311 310 309 307 307 306 306 305 304 303 302 302 302 302 302 303 302 302 303 304 304 303 302 302 302 301 300 300 299 299 299 298 298 298 298
330 328 327 326 325 324 324 323 322 322 321 320 320 320 320 319 319 318 318 318 317 317 316 316 316 317 318 318 318 319 319 319 320 321 321 322 321 321 321 321 321 321 321 321 320 320 320 319 318 317 315 314 313 312 311 310 310 309 308 307 307 306 305 304 304 305 305 306 307 306 305 305 306 305 305 304 304 303 303 302 302 302 301 301 301 300 300 299
328 328 327 327 326 325 324 323 322 322 321 320 319 319 319 319 318 318 318 318 319 319 319 320 320 320 320 320 320 321 321 322 322 323 323 323 323 323 323 323 323 324 324 323 323 322 321 320 320 319 318 317 316 315 315 314 313 313 313 312 311 311 311 311 311 311 311 311 310 309 308 308 307 306 306 305 304 304 304 303 303 302 302 302 301 300 299 299
329 328 327 325 324 323 322 322 321 320 319 319 319 319 320 320 321 321 322 323 323 323 323 323 322 322 321 322 322 323 324 324 324 325 325 326 326 327 327 327 327 327 327 326 325 323 322 321 321 320 320 320 319 319 319 319 318 318 318 318 317 317 317 316 315 314 313 312 311 310 310 309 308 307 307 306 305 305 304 303 303 302 302 301 301 300 299 299
327 326 325 324 323 322 322 321 321 321 321 322 323 324 325 326 327 327 327 328 327 326 325 324 324 323 323 324 325 326 327 327 328 329 329 330 330 330 331 331 330 329 328 327 326 326 325 325 324 323 322 321 321 321 322 324 323 323 322 322 321 320 320 318 317 316 315 314 313 312 311 310 309 309 308 307 306 306 305 304 303 302 302 302 301 301 301 301
328 327 326 326 326 326 326 326 327 327 329 330 331 332 333 333 333 332 331 330 329 328 327 326 326 326 327 328 330 331 332 332 332 333 333 333 333 333 333 332 332 331 331 331 330 330 331 331 330 329 328 328 328 327 328 329 329 328 327 326 324 323 322 320 319 318 317 316 315 313 312 311 310 310 309 307 307 306 305 304 304 303 303 303 303 302 302 302
331 331 331 332 332 333 334 335 335 337 338 339 339 340 340 339 338 336 335 333 332 331 330 330 330 331 332 334 335 335 335 335 335 335 335 335 335 335 335 335 335 335 336 336 337 337 337 336 336 336 336 336 336 335 334 333 332 331 329 328 326 325 324 322 321 320 319 318 316 314 312 311 310 310 309 308 308 307 306 305 305 305 304 304 303 302 302 301
339 340 341 341 342 344 345 346 347 347 348 348 348 347 346 344 342 340 338 337 336 335 335 335 335 336 336 337 337 337 337 337 338 338 338 338 338 339 339 340 341 342 343 343 343 343 342 342 343 342 342 341 340 339 338 336 334 332 331 330 329 327 326 324 323 322 320 319 316 314 313 312 311 311 310 309 309 307 307 306 305 305 304 303 303 302 303 303
349 351 352 352 353 355 356 357 357 357 357 356 354 352 350 348 346 344 342 341 340 339 339 338 338 339 339 339 340 340 341 341 341 342 342 343 344 345 346 347 347 347 347 347 347 347 347 347 347 346 345 345 344 342 340 338 336 334 332 331 330 328 326 325 324 322 320 318 316 315 315 314 313 312 311 310 309 308 307 306 306 305 305 305 304 304 305 305
355 356 357 358 359 1 2 2 2 2 1 360 358 356 353 351 349 347 346 345 343 342 341 341 341 341 342 342 343 343 344 344 345 346 348 349 350 351 351 352 352 353 353 353 353 354 353 353 352 350 348 347 345 343 341 338 336 334 332 331 329 327 326 325 323 322 320 319 317 317 315 314 313 312 312 311 310 310 309 308 308 307 307 306 306 306 306 306
4 5 5 6 7 8 9 9 9 8 7 4 2 359 356 353 351 350 348 347 346 344 344 344 343 344 344 345 346 346 347 348 350 352 354 356 358 1 3 4 5 5 4 2 1 0 358 356 354 352 349 347 346 343 340 338 335 333 331 330 328 327 326 324 323 321 320 318 317 316 315 314 314 313 313 312 311 310 310 309 308 308 307 307 307 307 307 307
17 17 18 19 20 20 19 19 16 13 11 7 3 1 359 356 355 355 353 353 353 352 351 351 350 350 351 352 353 354 357 360 3 8 12 14 16 18 18 17 16 12 9 7 4 2 359 356 355 352 349 347 345 343 341 338 336 334 332 330 329 327 325 324 323 321 320 318 317 316 316 315 315 314 313 312 312 311 310 309 309 308 308 309 309 309 309 309
27 27 27 27 27 26 23 20 18 14 12 9 7 6 5 5 5 5 4 4 5 5 5 4 4 5 6 8 10 14 19 23 27 29 30 30 28 26 23 20 16 13 10 7 4 1 359 357 355 352 349 347 345 344 342 340 338 335 333 332 330 328 327 326 324 323 322 321 320 319 318 317 316 315 314 314 313 312 311 311 310 310 310 310 310 310 311 311